User: anonymous   Login
Location: DaVinci Observatory
(43.1080°N, 78.6453°W)
Time: 22:55:49
(UTC-04:00)
Language:

Tiangong 1 - Orbit

View from above orbital plane
View from above orbital plane
View from above satellite
View from above satellite

Ground track
Ground track

The orbit data is extracted from the following two-line orbital elements,

1 37820U 11053A   17294.87196759  .00042861  88022-5  15390-3 0  9992
2 37820  42.7546 139.7439 0020473 265.9090 277.9422 15.88602025348042
Epoch (UTC): 21 October 2017 20:55:38
Eccentricity: 0.0020473
inclination: 42.7546°
perigee height: 292 km
apogee height: 320 km
right ascension of ascending node: 139.7439°
argument of perigee: 265.9090°
revolutions per day: 15.88602025
mean anomaly at epoch: 277.9422°
orbit number at epoch: 34804

The dashed part of the orbit path shows where the satellite is in the earth's shadow,  

DLR